Regional Weather Roundup
Issued by NWS Albany, NY

Home | Current Version | Previous Version | Text Only | Print | Product List | Glossary On
Versions: 1 2 3 4 5 6 7 8 9 10 11 12 13 14 15 16 17 18 19 20 21 22 23 24 25 26 27 28 29 30 31 32 33 34 35 36 37 38 39 40 41 42 43 44 45 46 47 48 49
000
ASUS41 KALY 302110
RWRALY

NEW YORK STATE HOURLY WEATHER ROUNDUP
NATIONAL WEATHER SERVICE ALBANY NY
500 PM EDT TUE SEP 30 2014

NOTE: "FAIR" INDICATES FEW OR NO CLOUDS BELOW 12,000 FEET WITH NO
SIGNIFICANT WEATHER AND/OR NO OBSTRUCTIONS TO VISIBILITY.

NYZ032-033-038>043-046>054-057>066-NYZ062>081-302200-
EAST


CITY           SKY/WX    TMP DP  RH WIND       PRES   REMARKS
ALBANY         PTSUNNY   72  56  57 SE7       29.93S
GLENS FALLS    PTSUNNY   71  58  63 NW5       29.94R
POUGHKEEPSIE   CLOUDY    68  57  68 SE8       29.93S
MONTGOMERY     CLOUDY    67  58  72 E7        29.93R
WHITE PLAINS   PTSUNNY   64  57  78 E6        29.94F
ISLIP          CLOUDY    65  58  78 NE9       29.92F
NEW YORK CITY  CLOUDY    66  60  81 NE8       29.93S
CENTRAL PARK   CLOUDY    68  57  68 VRB5      29.96S
$$

NYZ005>009-017-018-044>046-055-056-302200-
CENTRAL


CITY           SKY/WX    TMP DP  RH WIND       PRES   REMARKS
FULTON         SUNNY     70  59  68 N12       29.89R
SYRACUSE       PTSUNNY   74  62  66 NE12      29.87S
ROME           MOSUNNY   72  61  68 E10       29.91S
ELMIRA         PTSUNNY   64  60  87 NE6       29.87S THUNDER
BINGHAMTON     LGT RAIN  64  62  93 S5        29.91S
MONTICELLO     MOSUNNY   66  57  72 SE9       29.95S
$$

NYZ026>034-041>043-302200-
NORTH


CITY           SKY/WX    TMP DP  RH WIND       PRES   REMARKS
WATERTOWN      CLOUDY    66  53  63 NE15      29.93R
FORT DRUM      NOT AVBL
MASSENA        MOSUNNY   60  53  77 N9        29.97F
SARANAC LAKE   CLOUDY    66  55  67 NE8       29.95R
PLATTSBURGH    PTSUNNY   68  57  68 NE7       29.95S
$$

NYZ001>004-010>016-019>021-302200-
WEST


CITY           SKY/WX    TMP DP  RH WIND       PRES   REMARKS
NIAGARA FALLS  PTSUNNY   67  59  75 N10       29.89R
BUFFALO        PTSUNNY   72  56  57 NE7       29.88S
DUNKIRK        CLOUDY    64  59  83 W6        29.91S
JAMESTOWN      CLOUDY    61  55  82 W9        29.93S
WELLSVILLE     PTSUNNY   71  51  49 N6        29.91S
ROCHESTER      CLOUDY    64  59  83 NE16      29.91R
PENN YAN       MOSUNNY   76  57  51 VRB5      29.87S
$$

             KEY
       WCI = WIND CHILL INDEX
       VSB = VISIBILITY
       HX  = HEAT INDEX
$$


USA.gov is the U.S. government's official web portal to all federal, state and local government web resources and services.